Location: Vallejo Observatory
(38.1221°N, 122.2109°W)
Time: 09:35:27
(UTC-08:00)

Daily predictions for brighter satellites

Satellite Brightness Start Highest point End
(mag) Time Altitude Azimuth Time Altitude Azimuth Time Altitude Azimuth
COSMOS 2406 3.3 17:10:27 10° NNW 17:16:05 56° ENE 17:21:41 10° SE
Cosmos 1378 Rocket 3.8 17:12:13 10° SSW 17:16:30 74° W 17:20:49 10° N
OTV 4 0.8 17:14:11 10° W 17:17:10 66° S 17:20:09 10° ESE
SL-8 Rocket 4.2 17:14:07 10° N 17:20:02 47° E 17:25:55 10° SSE
Cosmos 1484 Rocket 4.2 17:19:34 10° ESE 17:22:03 17° ENE 17:24:30 10° NNE
USA 32 4.3 17:17:52 10° SSE 17:22:50 46° E 17:27:48 10° NNE
IDEFIX/ARIANE 42P 2.7 17:18:10 10° SSE 17:23:13 54° ENE 17:28:17 10° N
Meteor 1-5 Rocket 4.2 17:21:31 10° N 17:26:53 62° E 17:32:23 10° SSE
Cosmos 372 Rocket 4.2 17:22:38 10° SSW 17:27:53 81° WNW 17:33:10 10° NNE
BREEZE M DEB (TANK) 4.4 17:16:29 10° SSW 17:28:51 42° SSE 17:32:37 11° ENE
Cosmos 2366 rocket 4.4 17:24:09 10° N 17:30:09 42° ENE 17:36:03 10° SSE
Cosmos 1455 Rocket 3.9 17:26:20 10° NNE 17:30:12 29° ENE 17:34:03 10° SE
Cosmos 2181 Rocket 4.1 17:24:23 10° S 17:30:42 90° E 17:37:10 10° N
Cosmos 2218 Rocket 4.2 17:26:03 10° N 17:32:08 49° E 17:38:06 10° SSE
Cosmos 2082 Rocket 3.8 17:36:09 10° NNE 17:38:37 13° NE 17:39:41 12° ENE
USA 234 4.1 17:34:01 10° NE 17:40:09 44° NW 17:46:15 10° WSW
SL-8 R/B 4.1 17:38:47 10° SSW 17:43:22 49° SE 17:47:02 16° ENE
Cosmos 1833 Rocket 4.4 17:42:18 10° NNE 17:44:25 12° NE 17:44:32 12° NE
Okean 1 4.0 17:42:35 10° SSE 17:46:13 33° E 17:49:52 10° NNE
Thor Agena Rocket 3.8 17:41:38 10° N 17:46:50 75° WNW 17:52:03 10° SSW
BREEZE M DEB (TANK) 4.3 17:44:13 10° NNW 17:47:02 22° NNE 17:50:35 15° ENE
Cosmos 494 Rocket 4.4 17:42:20 10° N 17:47:15 40° ENE 17:52:10 10° SE
Cosmos 1500 4.5 17:44:22 10° NNE 17:47:16 20° ENE 17:50:10 10° SE
Hubble Space Telescope 3.5 17:45:17 10° SW 17:47:24 14° SSW 17:49:32 10° SSE
Cosmos 1536 4.1 17:44:17 10° NNW 17:48:11 46° W 17:52:05 10° SSW
NOSS 3-3 (A) 4.3 17:45:56 10° S 17:51:46 48° ESE 17:57:10 14° NE
NOSS 3-3 (C) 4.3 17:46:02 10° S 17:51:52 48° ESE 17:57:14 14° NE
ISS -2.1 17:49:05 10° WSW 17:52:09 36° NNW 17:54:29 15° NNE
Cosmos 2251 Rocket 3.5 17:56:04 10° NNW 18:01:24 63° ENE 18:06:39 10° SSE
ATLAS 2AS CENTAUR R/B 3.0 17:54:14 10° NNW 18:02:17 66° NE 18:09:45 10° SE
Meteor 1-18 Rocket 4.2 17:57:08 10° S 18:02:43 78° E 18:08:27 10° NNE
SL-27 R/B 2.4 17:59:42 10° NNW 18:03:24 81° ENE 18:07:01 10° SSE
SL-08 R/B 4.5 17:58:13 10° N 18:04:39 83° E 18:10:55 10° S
Tiangong 1 2.8 18:03:16 10° S 18:05:25 18° SE 18:05:52 17° SE
Cosmos 1812 2.6 18:02:07 10° S 18:05:58 88° E 18:09:51 10° N
Cosmos 1346 Rocket 3.3 18:03:19 10° SSE 18:06:55 36° E 18:08:21 26° NE
CZ-4 R/B 3.6 18:08:12 10° SSW 18:11:54 30° W 18:15:37 10° NW
COSMO-SKYMED 1 2.5 18:12:38 10° NNE 18:17:00 85° ESE 18:21:20 10° SSW
CZ-3B DEB 2.5 18:13:56 10° WSW 18:17:35 59° NNW 18:24:12 17° NE
MSX 4.1 18:11:56 10° S 18:17:40 73° WSW 18:23:26 10° NNW
Cosmos 1544 Rocket 4.2 18:13:58 10° NNW 18:18:21 58° W 18:22:44 10° S
DMSP B5D1-3 4.5 18:14:57 10° NNE 18:20:06 66° ESE 18:25:11 10° S
Nadezhda 3 Rocket 4.0 18:18:44 10° S 18:24:46 59° E 18:30:53 10° NNE
CZ-2C R/B 4.2 18:20:41 10° SSW 18:25:09 35° W 18:29:46 10° NNW
Meteor 2-21 4.4 18:20:09 10° N 18:26:18 63° E 18:32:22 10° SSE
GEOS 3 Rocket 3.4 18:22:08 10° SE 18:27:13 72° NE 18:32:20 10° NNW
Cosmos 1844 Rocket 4.0 18:23:05 10° SW 18:28:13 37° WNW 18:33:24 10° N
Cosmos 1238 Rocket 4.2 18:26:33 10° SW 18:29:11 28° W 18:31:49 10° NNW
Cosmos 1975 2.8 18:25:28 10° N 18:29:34 88° W 18:33:36 10° S
Cosmos 1536 Rocket 4.4 18:31:52 10° SSW 18:36:12 52° W 18:40:35 10° N
Cosmos 2297 3.7 18:34:24 10° S 18:39:55 57° ESE 18:41:27 43° NE
Meteor 2-14 Rocket 4.3 18:44:02 10° N 18:50:12 72° E 18:56:19 10° SSE
Meteor 1-19 Rocket 4.1 18:46:30 10° S 18:52:13 71° E 18:54:39 36° NNE
OTV 4 2.8 18:50:58 10° WSW 18:52:57 22° SW 18:52:57 22° SW
Cosmos 2278 Rocket 3.0 18:51:01 10° SW 18:56:28 48° WNW 19:00:22 19° N
Okean 1-7 Rocket 3.6 18:57:07 10° S 19:01:39 79° W 19:01:46 78° WNW
Cosmos 921 Rocket 3.8 18:59:28 10° SSW 19:02:15 41° SSW 19:02:15 41° SSW
Meteor 1-13 Rocket 4.5 19:01:39 10° SSW 19:07:14 68° W 19:11:11 21° N
Meteor 2-16 Rocket 4.4 19:05:41 10° N 19:11:46 84° W 19:17:51 10° S
Timation 1 Rocket 4.2 19:06:14 10° SSW 19:12:11 86° ESE 19:12:37 78° NE
Cosmos 2082 Rocket 2.9 19:17:51 10° NNW 19:21:38 44° NNW 19:21:38 44° NNW
Timation 2 Rocket 4.1 19:21:30 10° NNW 19:28:21 81° WSW 19:30:02 55° S
Cosmos 1833 Rocket 4.0 19:23:36 10° NNW 19:26:18 29° NNW 19:26:18 29° NNW
ATLAS 3B CENTAUR R/B 3.6 19:23:46 10° WSW 19:36:43 41° SSW 19:37:43 39° S
